Location: Jackson Park
(37.2862°N, 79.9123°W)
Time: 22:52:32
(UTC+00:00)

Explorer 11/Cluster Stage 4 - Pass Details

Date: 12 May 2026
Orbit: 463 x 1173 km, 28.8° (Epoch: 5 June)

Event Time Altitude Azimuth Distance (km) Brightness Sun altitude
Rises 07:41:07 0° 257° (WSW) 3,134 - -24.9°
Reaches altitude 10° 07:44:05 10° 245° (WSW) 2,076 - -24.5°
Maximum altitude 07:47:58 25° 191° (S) 1,205 - -24.0°
Drops below altitude 10° 07:51:20 10° 135° (SE) 1,781 - -23.6°
Exits shadow 07:51:55 - 130° (SE) 1,965 8.6 -23.5°
Sets 07:53:42 0° 121° (ESE) 2,592 9.4 -23.3°
